ARIANE 44LP DEB, 25539

Orbit data source: Space-Track

ARIANE 44LP DEB, 25539 is space debris in HEO originally from a launch on Sun, 11 Dec 1988 UTC launched from the French Guiana (FRGUI). Debris objects in space refer to the collection of defunct objects orbiting the Earth. Examples of debris include non-operational satellites, rocket bodies, and fragments generated from explosions, collisions, or faulty payload assembly.

Loading next visibility...
Identifier
25539, 1988-109F
Orbit
HEO
Last TLE update
15 hours ago
Origin
Manufacturer
Unknown
Mission
Spacecraft
Bus & Motor
Unknown
Mass
Unknown
Launch date (UTC)
1988-12-11 (37 years ago)
Launch vehicle
Unknown
Launch site
French Guiana (FRGUI)
Object type
Payload
Rocket body
Debris
Shape & HBR
Unknown
Radar Cross Section
Medium (>0.1 m² and <1 m²)

Expand to show TLE details & history

TLE from 15 hours ago
0 ARIANE 44LP DEB
1 25539U 88109F   25183.95537144  .00000422  00000-0  13598-2 0  9993
2 25539   6.8485 129.3380 6813282 256.9912  24.4764  2.77505074251278
Epoch: 2025-07-02T22:55Z
TLE epoch observation values (Epoch: 2025-07-02T22:55:44.092Z)
Latitude
0.00001°
Longitude
-136.07503°
Altitude
7,126.23 km
Speed
6.356 km/s
True Right ascension
08h 36m 21s
True Declination
0° 00' 00"
Sunlit
Object was in daylight at epoch
Visualization orbit readout
Latitude
6.27879°
Longitude
-22.72291°
Altitude
19,317.46 km
Speed
3.52 km/s
Apparent Right ascension
15h 47m 16s
Apparent Declination
-2° 26' 42"
Sunlit
Object is in daylight
Visualization observer readout
Local Sidereal Time
01:44:25
Azimuth
315.457° NNW
Elevation
-43.33°
Doppler factor
1
Orbital elements
Apogee altitude
29,595 km
Perigee altitude
440.058 km
Semi-major axis
21,395.666 km
Eccentricity
0.68133
Inclination
6.8485°
RAAN
129.338°
Arg. of periapsis
256.9912°
True anomaly
Unknown
Mean anomaly
24.4764°
Eccentric anomaly
Unknown
Mean motion
0.69351 °/min
Orbital period
519.1 mins
BSTAR
0.0013598
Loading maneuver chart data...
Loading SW <> Apogee altitude chart data...
Loading historical data...
Loading historical data...
Loading historical data...
Loading historical data...
Loading historical data...
Loading historical data...
Loading historical data...

ARIANE 44LP DEB Visibility forecast

Observer location: undefined°, undefined°

Span
Click to sort rows by Start time (UTC) header in descending order
Start Az.
Max El. time (UTC)
Max El. Az.
Max El.
End time (UTC)
End Az.
447 mins2025-07-04 01:08:31.135Z242.223° WSW2025-07-04 03:17:31.135Z232.102° WSW29.869°2025-07-04 08:35:31.135Z175.503° S
|